Theta_e
307 304 303 308 314 315 318 323 322 321 330 329 330 341 346 355 360 361 357 353 356 361 362 362 362 362 361 361 361 361 360 359
301 300 306 311 316 317 317 322 325 325 323 336 346 344 351 357 359 359 355 353 359 361 361 361 361 361 361 361 361 360 359 357
299 300 305 311 315 317 316 318 321 327 324 332 347 355 357 358 358 356 353 354 356 360 360 361 360 360 360 360 360 360 359 357
298 301 305 309 313 315 317 319 322 326 327 333 351 354 356 358 357 356 353 354 354 359 359 359 359 359 359 358 359 359 358 357
301 302 303 306 313 312 315 318 318 322 319 337 344 354 358 358 357 357 354 351 352 353 356 358 358 358 358 358 358 358 357 357
301 301 302 308 310 314 315 316 322 321 315 320 345 355 358 357 356 355 355 353 350 350 348 348 352 359 358 358 359 358 357 356
301 300 303 308 307 312 317 316 319 321 320 337 353 354 353 353 354 354 354 353 350 347 348 346 345 354 358 358 358 358 356 354
306 306 304 307 306 308 308 310 313 317 329 343 351 351 348 347 348 350 351 352 352 350 350 349 345 350 349 353 352 352 352 352
307 306 307 306 306 310 308 307 311 313 319 340 346 350 348 347 348 349 351 353 352 354 354 351 349 347 347 346 349 351 353 353
305 306 305 305 308 307 308 310 316 320 328 342 343 346 349 348 348 348 350 352 355 355 354 353 352 350 350 349 348 348 349 353
305 305 305 307 305 306 308 312 316 314 321 343 345 346 348 350 350 351 350 352 355 356 355 355 356 351 352 352 350 350 351 352
306 305 306 304 305 306 308 312 311 312 314 326 344 347 349 350 350 351 352 351 354 354 357 355 354 356 354 355 355 354 353 353
304 306 304 306 301 303 309 312 310 311 313 318 328 345 347 351 351 352 352 354 354 355 356 357 356 356 354 354 354 354 354 356
301 303 305 304 298 306 310 309 309 310 312 313 333 339 348 351 353 353 353 353 355 352 354 354 358 357 353 355 355 354 352 352
296 303 303 303 300 306 310 309 308 310 311 313 325 341 348 352 353 353 353 354 352 352 352 354 359 357 357 358 351 349 350 352
293 299 301 301 301 306 307 308 309 310 311 312 320 338 347 349 352 352 352 353 351 351 353 356 356 355 350 347 346 353 356 357
296 300 299 299 300 304 307 307 308 309 311 313 316 332 344 348 349 351 352 351 352 351 354 353 349 342 343 343 352 352 353 355
296 299 300 299 299 304 307 307 309 309 311 313 319 328 341 345 345 347 349 350 350 350 353 351 349 351 354 354 351 350 350 349
292 296 300 299 298 300 305 309 310 311 312 315 322 331 339 342 343 345 346 348 348 350 351 352 356 357 353 352 349 348 347 344
293 292 290 299 291 299 303 305 308 310 311 318 325 333 339 341 342 342 344 347 349 350 352 353 355 355 355 349 345 346 345 341
Wind_Speed
7 16 20 16 16 16 10 6 5 2 4 2 4 4 8 7 19 22 19 19 17 16 17 17 17 17 17 17 15 13 13 13
13 20 24 25 12 13 13 11 5 6 6 7 4 5 7 16 21 21 20 18 18 16 17 19 18 17 17 17 16 15 13 13
19 25 22 16 16 10 14 14 9 7 5 2 7 6 14 19 19 21 19 17 18 15 17 18 19 18 17 16 15 14 14 13
21 24 22 14 19 15 14 15 8 9 7 3 7 10 15 19 20 19 19 18 18 14 16 16 17 18 17 16 15 14 13 12
22 22 21 20 17 19 17 16 14 3 7 7 8 9 16 18 18 18 18 18 17 17 15 15 15 16 16 16 15 14 13 12
24 19 22 18 21 16 19 18 6 3 8 7 12 13 16 19 19 19 18 18 18 16 16 15 14 14 14 15 14 13 11 11
26 21 18 11 19 18 15 16 11 11 7 9 16 14 16 18 19 18 17 17 17 17 15 14 14 13 14 14 13 13 12 10
17 19 16 14 17 20 18 19 19 20 8 11 17 17 18 20 20 21 20 18 16 16 15 13 11 14 12 12 10 9 8 9
15 11 14 14 14 13 15 19 21 20 16 15 15 17 18 19 20 21 20 16 18 16 15 15 11 10 7 7 7 6 7 6
9 17 13 16 14 13 18 13 6 8 9 13 16 17 18 20 20 20 20 18 18 17 15 14 10 9 9 7 7 6 7 7
18 8 14 12 13 17 17 16 6 1 1 14 14 14 15 17 19 19 20 19 18 17 15 13 11 8 8 7 7 6 6 6
19 17 16 16 19 19 16 17 11 8 8 10 15 15 14 17 19 18 17 16 17 15 11 13 10 10 7 6 7 5 5 5
20 16 17 14 21 29 21 12 11 8 5 5 13 15 16 17 18 19 16 14 16 14 13 12 11 9 7 7 5 4 3 5
18 22 18 17 22 22 22 20 20 16 9 6 5 12 15 17 18 18 16 16 12 11 12 10 10 8 6 6 4 4 3 3
19 18 20 22 12 23 17 19 17 17 14 10 8 11 14 16 18 18 16 16 14 13 13 13 11 8 7 7 5 4 3 3
16 16 20 23 23 16 8 16 19 15 15 13 10 11 14 16 16 17 16 15 14 12 14 13 10 8 7 7 7 6 7 6
8 2 11 19 22 21 22 10 14 15 12 12 15 12 13 15 14 15 16 16 15 14 13 10 10 9 9 9 9 7 7 8
9 13 10 13 19 19 19 21 18 14 14 14 15 16 14 16 16 16 16 15 15 14 14 10 8 7 8 8 8 7 5 5
9 4 9 12 16 19 22 20 20 17 13 14 18 18 17 18 16 16 16 16 15 15 14 11 12 10 10 10 8 7 7 5
10 10 13 15 8 25 22 23 21 20 16 15 20 18 18 18 18 15 16 15 15 15 14 13 13 11 14 10 8 3 6 8
Wind_Direction
226 229 237 231 199 228 206 167 238 246 227 322 100 104 140 127 153 149 154 157 146 149 139 136 133 137 134 133 131 131 134 137
234 226 225 242 234 223 203 196 215 264 245 127 82 142 134 148 152 152 154 150 138 149 143 140 141 141 137 135 135 135 132 129
224 235 238 225 246 247 226 231 221 210 236 119 129 110 132 152 156 159 153 153 154 153 146 145 146 143 139 136 133 130 130 131
224 226 227 208 240 234 235 221 188 197 248 106 108 150 150 156 161 159 151 147 146 154 148 148 148 142 137 133 129 127 126 127
237 227 217 219 228 227 232 227 215 159 231 93 166 138 150 157 156 154 153 154 154 160 153 144 144 139 136 132 128 125 125 124
235 232 239 206 223 225 231 226 209 263 235 193 142 158 151 158 162 160 162 154 156 156 164 160 152 136 135 131 128 123 123 123
226 220 232 216 220 217 229 241 241 218 269 81 134 154 159 158 165 168 167 159 160 160 158 159 151 138 132 130 126 125 133 139
238 223 240 216 224 223 215 226 229 234 119 131 143 159 169 168 168 170 167 172 160 160 154 150 154 152 156 145 162 168 169 175
241 263 240 246 211 227 221 227 222 231 199 167 165 168 177 176 176 173 167 172 169 160 162 158 151 163 160 163 154 163 168 183
242 226 245 236 227 214 234 225 165 64 316 163 186 180 181 182 179 174 170 174 168 165 162 167 154 171 160 157 162 167 168 172
245 236 242 251 239 234 221 233 175 157 303 173 197 196 192 186 178 177 175 176 174 170 165 158 164 158 168 155 174 151 161 161
239 235 238 243 237 226 232 223 235 240 219 201 194 199 192 185 181 179 176 176 171 174 150 159 173 163 155 173 144 173 159 149
242 235 235 233 242 237 233 188 211 247 227 282 202 187 194 190 182 178 177 173 168 170 154 167 158 165 177 165 164 159 151 158
217 227 230 236 246 223 232 236 236 235 232 205 190 188 191 183 180 177 170 169 157 157 157 161 161 165 168 133 137 137 144 148
229 207 223 218 241 245 248 230 242 235 228 210 191 193 180 182 176 172 165 163 155 146 169 171 158 160 139 129 144 118 129 132
225 204 221 229 226 254 220 245 237 225 223 213 187 187 173 184 175 170 162 157 152 166 164 169 154 146 131 135 139 99 77 88
223 161 260 232 241 218 238 223 223 222 215 212 191 184 182 175 171 169 159 155 157 153 152 163 160 154 149 148 122 110 119 124
249 253 246 256 235 234 237 234 239 219 212 203 178 188 171 167 168 167 157 154 152 151 154 157 147 149 121 130 122 135 132 129
269 217 250 273 253 229 232 232 231 231 229 210 184 175 177 172 162 156 153 150 150 151 151 151 130 125 125 133 145 166 169 133
260 252 242 197 254 203 221 220 221 210 212 203 186 183 179 170 160 145 148 144 146 148 153 147 164 156 164 169 172 136 113 92